Preview of NWS' New Version of Forecast
This preview is not operational and should not be used for support decisions.

Regional Weather Roundup (RWR)

Issued by National Weather Service (NWS)

                            
000
ASUS43 KTOP 171508
RWRKS 

WEATHER ROUNDUP FOR KANSAS
NATIONAL WEATHER SERVICE GOODLAND KS
900 AM CST SUN FEB 17 2019

NOTE:  "FAIR" INDICATES FEW OR NO CLOUDS BELOW 12,000 FEET WITH NO
SIGNIFICANT WEATHER AND/OR OBSTRUCTIONS TO VISIBILITY.

KSZ001>006-013>018-027>032-041>047-171600-
NORTHWEST KANSAS
  
CITY           SKY/WX    TMP DP  RH WIND       PRES   REMARKS
GOODLAND       SUNNY     14  10  84 N15       29.89R WCI  -1          
HAYS           SUNNY     21  15  78 NW12      29.94R WCI   9          
HILL CITY      SUNNY     18  11  74 NW16G24   29.94R WCI   3          
RUSSELL        SUNNY     19  15  84 NW18      29.91R WCI   4          
$$

KSZ061>065-074>080-084>089-171600-
SOUTHWEST KANSAS
  
CITY           SKY/WX    TMP DP  RH WIND       PRES   REMARKS
DODGE CITY       N/A     21  14  74 N14G24    29.93R WCI   8          
ELKHART        SUNNY     29  23  78 W7        29.92R                  
GARDEN CITY    SUNNY     19  15  84 N15       29.94R WCI   5          
GREAT BEND     MOSUNNY   21  17  84 NW10      29.94R WCI  10          
LIBERAL        SUNNY     27  24  89 NW8       29.96R                  
PRATT          SUNNY     24  19  83 N15       29.94R WCI  11          
$$

KSZ066>073-081>083-090>101-171600-
SOUTHEAST KANSAS
  
CITY           SKY/WX    TMP DP  RH WIND       PRES   REMARKS
CHANUTE        CLOUDY    26  18  71 W17       29.92R WCI  13          
COFFEYVILLE    CLOUDY    27  22  81 NW14      29.95R WCI  16          
HUTCHINSON     MOSUNNY   24  20  84 NW15G23   29.93R WCI  11          
MEDICINE LODGE   N/A     26  22  84 NW9       29.96R                  
PARSONS        CLOUDY    26  23  88 NW13      29.95R WCI  15          
WICHITA INTL   MOSUNNY   27  21  78 NW14      29.94R WCI  16          
WICHITA JABRA  MOSUNNY   24  17  74 NW16G24   29.93R WCI  11          
WICHITA MCCONL SUNNY     25  19  77 W15       29.93R WCI  13          
WINFIELD       SUNNY     27  22  81 NW10      29.96R WCI  17          
$$

KSZ007>012-019>026-033>040-048>060-102>105-171600-
NORTHEAST KANSAS
  
CITY           SKY/WX    TMP DP  RH WIND       PRES   REMARKS
CONCORDIA      SUNNY     11   7  84 W14       29.91R WCI  -5          
EMPORIA        CLOUDY    19  15  84 NW15G26   29.90R WCI   5          
LAWRENCE       CLOUDY    23  18  81 W17       29.87R WCI   9          
MANHATTAN      SUNNY     19  14  81 W12       29.93R WCI   7          
MARYSVILLE     CLOUDY    16  14  93 NW10      29.88R WCI   3          
OLATHE IND     CLOUDY    23  20  88 W14       29.85R WCI  11          
OLATHE EXE     CLOUDY    22  19  89 NW12G20   29.83R WCI  10          
SALINA         SUNNY     18  13  80 NW12      29.96R WCI   5          
TOPEKA BILLARD CLOUDY    22  16  78 W14       29.89R WCI   9          
TOPEKA FORBES  CLOUDY    21  16  81 NW14      29.87R WCI   8          
$$